This is the latest recevied weather packets stored in our database for station/object W3AJR. If no packets are shown the sender has not sent any weather packets the latest 10 day(s).
| Time | Temp. | Humidity | Pressure | Rain* | Wind** | Luminosity | Snow |
|---|---|---|---|---|---|---|---|
| 1778262355 | 21.11° C | 33% | 1013.6 hPa | 0 mm | - | 744 W/m² | - |
| 1778262052 | 20.56° C | 34% | 1013.5 hPa | 0 mm | - | 713 W/m² | - |
| 1778261749 | 20.56° C | 33% | 1013.6 hPa | 0 mm | - | 718 W/m² | - |
| 1778261445 | 21.11° C | 35% | 1013.4 hPa | 0 mm | - | 750 W/m² | - |
| 1778261143 | 20.56° C | 36% | 1013.6 hPa | 0 mm | - | 761 W/m² | - |
| 1778260839 | 20.56° C | 36% | 1013.6 hPa | 0 mm | - | 772 W/m² | - |
| 1778260535 | 20.56° C | 38% | 1013.6 hPa | 0 mm | - | 803 W/m² | - |
| 1778260232 | 20° C | 38% | 1013.9 hPa | 0 mm | - | 866 W/m² | - |
| 1778259930 | 20° C | 40% | 1013.8 hPa | 0 mm | - | 781 W/m² | - |
| 1778259627 | 20° C | 38% | 1014.3 hPa | 0 mm | - | 734 W/m² | - |
| 1778259324 | 20° C | 38% | 1014.3 hPa | 0 mm | - | 765 W/m² | - |
| 1778259020 | 20° C | 40% | 1014.2 hPa | 0 mm | - | 145 W/m² | - |
| 1778258717 | 20° C | 38% | 1014.3 hPa | 0 mm | - | 788 W/m² | - |
| 1778258414 | 20° C | 37% | 1014.1 hPa | 0 mm | - | 800 W/m² | - |
| 1778258111 | 19.44° C | 41% | 1014.3 hPa | 0 mm | - | 804 W/m² | - |
| 1778257807 | 20° C | 37% | 1014.2 hPa | 0 mm | - | 809 W/m² | - |
| 1778257505 | 19.44° C | 40% | 1014.3 hPa | 0 mm | - | 795 W/m² | - |
| 1778257202 | 20° C | 38% | 1014.5 hPa | 0 mm | - | 778 W/m² | - |
| 1778256898 | 19.44° C | 37% | 1014.4 hPa | 0 mm | - | 829 W/m² | - |
| 1778256596 | 19.44° C | 40% | 1014.8 hPa | 0 mm | - | 829 W/m² | - |
| 1778256294 | 20° C | 38% | 1015 hPa | 0 mm | - | 848 W/m² | - |
| 1778255990 | 20° C | 37% | 1014.8 hPa | 0 mm | - | 831 W/m² | - |
| 1778255688 | 20° C | 43% | 1015 hPa | 0 mm | - | 809 W/m² | - |
| 1778255384 | 19.44° C | 39% | 1014.9 hPa | 0 mm | - | 777 W/m² | - |
| 1778255083 | 18.89° C | 43% | 1015.1 hPa | 0 mm | - | 819 W/m² | - |
* Rain latest hour (hover to see other rain measurements)
** Current wind speed in m/s (hover to see current wind gust speed)